Powrót do katalogu

COSMOS 469

AktywnyMilitariaLEO
NORAD 5721·PAYLOAD·🇷🇺 Russia

Wystrzelony Dec 25, 1971 z Baikonur Cosmodrome

Loading…

Następne Przeloty (najbliższe 24 godziny)

TLE

ŚwieżeSource: Space-Track

Epoka: Sep 14, 2026, 08:28 UTC

1 05721U 71117A   26257.35330917 -.00000062  00000-0  28396-4 0  9996
2 05721  64.4863 116.1726 0065905 258.4117 100.9531 13.76151332749398

Śledź COSMOS 469 w czasie rzeczywistym z AllMySat

Download on the App Store